This demonstration page uses our WeatherBlox Daily Observations layout. Learn more.

Hourly Observations for May 9, 2019

Temp ( °F °C ) Dew Point ( °F °C ) Humidity (%) Winds ( mph kmh ) Pressure ( in mb ) Visibility ( mi km ) Precip ( " mm )
12:14 am 00:14 Cloudy 42 5.6 35 1.7 76 76 NNW 21 33 29.91 1013 10 16.09344 0 0
12:54 am 00:54 Cloudy 41 5 35 1.7 79 79 NNW 18 30 29.88 1012 10 16.09344 0 0
1:49 am 01:49 Cloudy 41 5 36 2 81 81 NNW 17 28 29.94 1014 10 16.09344 0 0
1:54 am 01:54 Cloudy 41 5 34 1.1 76 76 NNW 17 28 29.91 1013 10 16.09344 0 0
2:22 am 02:22 Cloudy 41 5 34 1.1 76 76 NNW 17 28 29.94 1014 10 16.09344 0 0
2:54 am 02:54 Cloudy with Light Rain 40 4.4 35 1.7 83 83 N 23 37 29.88 1012 10 16.09344 0.001 0.001
3:17 am 03:17 Cloudy 40 4.4 34 1.1 79 79 N 21 33 29.94 1014 10 16.09344 0.001 0.001
3:54 am 03:54 Cloudy 40 4.4 34 1.1 79 79 NNW 20 31 29.94 1014 10 16.09344 0.001 0.001
4:27 am 04:27 Cloudy 41 5 33 0.6 73 73 NNW 23 37 29.97 1015 10 16.09344 0 0
4:54 am 04:54 Cloudy 41 5 33 0.6 73 73 N 21 33 29.94 1014 10 16.09344 0 0
5:54 am 05:54 Cloudy 41 5 33 0.6 73 73 N 20 31 29.94 1014 10 16.09344 0 0
6:54 am 06:54 Cloudy 41 5 34 1.1 76 76 N 16 26 29.97 1015 10 16.09344 0 0
7:54 am 07:54 Mostly Cloudy 43 6.1 35 1.7 74 74 N 22 35 29.97 1015 10 16.09344 0 0
8:54 am 08:54 Cloudy 45 7.2 35 1.7 68 68 N 18 30 30 1016 10 16.09344 0 0
9:54 am 09:54 Cloudy 46 7.8 36 2.2 68 68 N 22 35 30 1016 10 16.09344 0 0
10:43 am 10:43 Cloudy 49 9.4 37 2.8 64 64 NNE 17 28 30.06 1018 10 16.09344 0 0
10:54 am 10:54 Cloudy 48 8.9 36 2.2 63 63 NNE 22 35 30.03 1017 10 16.09344 0 0
11:54 am 11:54 Cloudy 49 9.4 37 2.8 64 64 N 18 30 30.06 1018 10 16.09344 0 0
12:54 pm 12:54 Cloudy 52 11.1 38 3.3 59 59 N 21 33 30.06 1018 10 16.09344 0 0
1:54 pm 13:54 Cloudy 54 12.2 38 3.3 55 55 N 22 35 30.03 1017 10 16.09344 0 0
2:54 pm 14:54 Cloudy 55 12.8 38 3.3 53 53 N 18 30 30.06 1018 10 16.09344 0 0
3:54 pm 15:54 Cloudy 54 12.2 38 3.3 55 55 N 15 24 30.06 1018 10 16.09344 0 0
4:54 pm 16:54 Cloudy 55 12.8 38 3.3 53 53 N 20 31 30.06 1018 10 16.09344 0 0
5:54 pm 17:54 Mostly Cloudy 55 12.8 38 3.3 53 53 N 18 30 30.06 1018 10 16.09344 0 0
6:54 pm 18:54 Mostly Sunny 54 12.2 39 3.9 57 57 N 15 24 30.06 1018 10 16.09344 0 0
7:54 pm 19:54 Mostly Sunny 52 11.1 38 3.3 59 59 N 14 22 30.06 1018 10 16.09344 0 0
8:54 pm 20:54 Mostly Cloudy 51 10.6 38 3.3 61 61 N 9 15 30.09 1019 10 16.09344 0 0
9:54 pm 21:54 Cloudy 49 9.4 40 4.4 71 71 N 7 11 30.15 1021 10 16.09344 0 0
10:54 pm 22:54 Cloudy 48 8.9 40 4.4 74 74 ENE 5 7 30.15 1021 10 16.09344 0 0
11:54 pm 23:54 Cloudy 49 9.4 39 3.9 69 69 NW 5 7 30.18 1022 10 16.09344 0 0

Powered by AerisWeather